Location: Dominion City
(49.1330°N, 97.1500°W)
Time: 12:14:32
(UTC-05:00)

Daily predictions for brighter satellites

Satellite Brightness Start Highest point End
(mag) Time Altitude Azimuth Time Altitude Azimuth Time Altitude Azimuth
METEOR-M 4.3 19:39:51 10° SE 19:45:01 52° ENE 19:50:13 10° N
Cosmos 2219 Rocket 3.0 19:43:07 10° SW 19:48:38 57° WNW 19:54:15 10° NNE
Cosmos 1953 3.4 19:45:49 10° SE 19:49:00 23° E 19:52:11 10° NE
Meteor 1-28 Rocket 3.6 19:46:35 10° NNE 19:50:09 41° E 19:53:40 10° S
Okean 3 Rocket 3.8 19:46:08 10° NNW 19:50:43 82° W 19:55:15 10° S
Cosmos 2278 Rocket 4.0 19:46:28 10° NW 19:51:36 36° WSW 19:56:42 10° S
Cosmos 1805 4.3 19:50:30 10° SE 19:53:45 25° E 19:57:01 10° NNE
H-2A R/B 4.1 19:51:19 10° ESE 19:54:17 21° ENE 19:57:14 10° NNE
SAR-Lupe-4 3.8 19:52:47 10° S 19:56:21 75° WSW 19:59:57 10° NNW
FENGYUN 3A 4.3 19:51:32 10° SE 19:56:23 36° ENE 20:01:17 10° N
Resurs 1-3 4.0 19:53:38 10° SE 19:57:46 43° ENE 20:01:57 10° N
Cosmos 2297 4.3 19:52:19 10° NW 19:57:56 62° WSW 20:03:29 10° SSE
Cosmos 1346 4.2 19:55:59 10° NNE 19:58:29 24° ENE 20:00:58 10° SE
Resurs 01 Rocket 1.8 19:54:17 10° SSE 19:58:38 55° ENE 20:03:00 10° N
Cosmos 1707 4.5 19:57:18 10° NNW 20:00:54 38° W 20:04:29 10° SSW
Meteor 1-22 Rocket 4.0 19:57:57 10° S 20:03:16 76° E 20:08:35 10° NNE
Cosmos 1743 Rocket 4.3 19:59:36 10° N 20:03:41 34° ENE 20:07:43 10° SE
ERBS 4.1 20:01:25 10° NW 20:04:20 24° N 20:07:16 10° ENE
CENTAUR R/B 3.9 20:03:23 10° SE 20:06:26 14° ESE 20:09:37 10° ENE
Meteor 1-24 Rocket 4.2 20:01:42 10° NNW 20:07:21 65° W 20:12:45 10° S
Spot 2 Rocket 3.5 20:02:21 10° SSE 20:07:21 71° ENE 20:12:24 10° N
NOSS 3-2 (C) 3.7 20:03:35 10° SSW 20:09:26 49° ESE 20:15:50 10° NE
Helios 1A 3.0 20:05:19 10° SSE 20:09:27 62° ENE 20:13:37 10° N
Cosmos 2369 Rocket 3.0 20:04:39 10° NNW 20:09:48 34° NE 20:14:17 13° ESE
Cosmos 1943 Rocket 3.6 20:09:01 10° N 20:13:16 21° NE 20:16:39 13° E
Cosmos 1470 4.1 20:13:51 11° SE 20:16:18 19° E 20:19:03 10° NE
Nadezhda 4 Rocket 4.1 20:12:05 10° N 20:18:17 55° ENE 20:24:22 10° SSE
Envisat 4.5 20:16:19 14° E 20:18:38 19° ENE 20:22:06 10° NNE
Cosmos 1603 4.3 20:13:45 10° S 20:18:53 35° ESE 20:24:04 10° NE
COSMO-SKYMED 1 3.7 20:15:04 10° N 20:19:16 48° WNW 20:23:26 10° SW
SJ-6B 3.8 20:15:55 10° S 20:19:49 52° W 20:23:50 10° NNW
GP-B 4.3 20:18:05 10° NNE 20:21:35 22° E 20:23:33 17° ESE
Cosmos 482 Debris 4.0 20:21:12 10° WNW 20:23:16 43° N 20:25:10 18° ENE
Cosmos 1072 Rocket 4.4 20:17:14 10° S 20:23:20 88° E 20:29:30 10° N
Cosmos 1092 Rocket 4.3 20:19:15 10° N 20:25:15 46° ENE 20:31:09 10° SSE
HJ-1C 3.8 20:26:21 10° S 20:29:41 66° WSW 20:33:04 10° NNW
Cosmos 1758 3.3 20:27:08 10° S 20:31:11 66° E 20:35:17 10° NNE
Cosmos 2333 Rocket 3.7 20:27:03 10° WSW 20:32:26 38° NW 20:37:49 10° NNE
Cosmos 192 4.3 20:27:44 10° SSW 20:32:42 85° ESE 20:37:42 10° NNE
Cosmos 1674 3.0 20:30:04 10° N 20:33:50 46° ENE 20:36:37 17° SE
Meteor 2-12 Rocket 4.4 20:27:59 10° S 20:34:02 65° E 20:40:09 10° NNE
Aureole 2 Rocket 3.6 20:31:56 10° SW 20:36:15 60° WNW 20:40:27 10° NNE
Cosmos 1766 Rocket 4.2 20:35:09 10° NNW 20:39:29 58° W 20:43:45 10° S
FengYun 1-2 T 4.3 20:34:48 10° SSE 20:40:19 82° WSW 20:45:51 10° NNW
USA 215 3.4 20:34:36 10° ENE 20:41:00 53° SE 20:47:19 10° SSW
Meteor 1-29 2.9 20:40:42 10° NNE 20:44:15 79° ESE 20:47:45 10° S
Cosmos 1634 Rocket 4.4 20:39:20 10° SSE 20:45:00 38° E 20:50:39 10° NNE
Helios 1B rocket 2.4 20:42:01 10° NNE 20:46:10 87° WNW 20:50:17 10° SSW
ALOS 2.2 20:44:16 10° SSE 20:48:57 88° W 20:53:39 10° NNW
H-2A R/B 3.8 20:48:55 17° ENE 20:49:00 17° ENE 20:51:56 10° NNE
SeaSat 1 3.1 20:50:08 10° NE 20:54:30 31° ESE 20:58:51 10° S
Cosmos 2237 Rocket 4.0 20:50:36 10° WSW 20:55:38 32° NW 21:00:42 10° NNE
CZ-4C R/B 3.5 20:51:09 10° WSW 20:56:29 42° NNW 21:02:33 10° NE
Cosmos 1110 Rocket 4.5 20:51:37 10° NNW 20:56:41 43° ENE 20:58:35 31° ESE
ERS-1 Rocket 3.5 20:55:08 30° ESE 20:56:52 40° ENE 21:01:32 10° N
Cosmos 1328 4.1 20:54:08 10° N 20:57:57 44° ENE 20:58:32 40° E
Cosmos 2034 Rocket 4.2 20:51:48 10° SSW 20:58:04 76° W 21:04:28 10° N
ATLAS 5 CENTAUR R/B 1.8 20:53:55 10° SW 20:58:46 82° SE 21:04:08 10° NE
Cosmos 1939 Rocket 3.7 20:58:49 31° ENE 20:58:49 31° ENE 21:02:21 10° N
CZ-4B DEB 3.4 20:57:05 13° S 20:59:50 58° W 21:03:05 10° NNW
Cosmos-2242 3.3 20:56:25 10° SSW 21:00:47 71° WNW 21:05:11 10° N
USA 186 2.5 21:04:11 31° NNW 21:04:11 31° NNW 21:05:36 10° NNW
ATLAS 3B R/B 4.3 20:56:45 10° W 21:03:31 35° NNW 21:10:04 10° NE
CZ-4 DEB 4.5 21:05:26 21° NNE 21:05:26 21° NNE 21:06:53 10° N
Cosmos 2221 4.4 21:08:46 16° NE 21:08:46 16° NE 21:10:00 10° NNE
SL-14 R/B 4.1 21:04:22 10° N 21:07:42 35° ENE 21:07:42 35° ENE
Cosmos 2151 3.0 21:04:58 10° N 21:09:10 58° ENE 21:09:57 48° ESE
CZ-2D R/B 3.8 21:09:16 15° S 21:12:25 58° W 21:16:17 10° NNW
Cosmos 1500 Rocket 3.8 21:08:45 10° NNW 21:13:10 72° W 21:16:35 17° S
SL-16 R/B 3.4 21:10:09 10° SW 21:15:34 43° NW 21:21:01 10° NNE
Cosmos 1842 Rocket 3.4 21:11:54 10° S 21:16:13 84° E 21:20:37 10° N
Cosmos 2058 3.2 21:12:48 10° N 21:16:28 46° ENE 21:16:28 46° ENE
Cosmos 1544 3.9 21:15:09 10° SSW 21:18:49 52° WNW 21:22:30 10° N
Cosmos 839 Rocket 4.3 21:13:06 10° NW 21:21:15 86° SW 21:24:46 31° SSE
NOSS 3-2 (A) 4.0 21:15:37 10° WSW 21:21:47 62° NW 21:28:39 10° NE
ARGOS 4.4 21:24:28 25° ENE 21:24:28 25° ENE 21:28:41 10° N
Cosmos 1953 4.1 21:21:41 10° SW 21:25:19 33° WNW 21:28:57 10° N
Cosmos 1627 Rocket 4.4 21:19:47 10° N 21:26:01 80° E 21:29:33 28° SSE
H-2A R/B 4.1 21:25:25 15° SSW 21:28:23 39° W 21:32:03 10° NNW
Terra 4.2 21:31:26 11° NE 21:31:26 11° NE 21:31:55 10° NNE
Cosmos 1331 Rocket 4.0 21:25:35 10° NNW 21:30:54 69° ENE 21:31:52 56° ESE
ASTEX 1 4.1 21:30:33 10° N 21:35:22 54° WNW 21:40:07 10° SSW
Resurs 01 Rocket 4.3 21:32:18 10° SW 21:35:26 19° W 21:38:36 10° NW
SJ-11-01 4.2 21:35:23 56° S 21:36:24 86° WSW 21:41:08 10° NNW
ERBS 3.5 21:38:11 10° NW 21:40:42 41° NNW 21:40:42 41° NNW
Cosmos 1302 Rocket 4.2 21:37:00 10° NNW 21:42:02 52° ENE 21:42:02 52° ENE
Cosmos 1048 Rocket 4.4 21:45:36 10° SW 21:50:51 63° WNW 21:56:05 10° NNE
Cosmos 1470 4.1 21:49:04 14° SW 21:52:09 39° WNW 21:55:49 10° N
Cosmos 2369 Rocket 2.9 21:48:36 10° NW 21:54:02 49° WSW 21:56:06 34° SSW
CENTAUR R/B 2.4 21:49:30 10° SSW 21:55:38 69° SE 22:02:36 10° NE
Envisat 3.0 21:56:32 68° SSW 21:57:05 77° WSW 22:02:12 10° NNW
Cosmos 1943 Rocket 2.0 21:52:11 10° NNW 21:57:52 87° ENE 21:58:11 80° SE
Cosmos 1943 3.0 21:52:48 10° SSW 21:58:26 87° ESE 22:04:06 10° NNE
GP-B 4.2 21:54:54 10° N 21:59:07 43° W 22:01:03 27° SW
NOSS 3-2 (C) 4.4 21:54:19 10° WSW 22:00:24 49° NW 22:07:09 10° NE
H-2A R/B 3.6 22:03:03 22° NNE 22:03:03 22° NNE 22:05:39 10° N
SPOT 5 3.6 22:04:14 39° N 22:04:14 39° N 22:07:05 10° N
Sich 1 4.1 21:59:47 10° N 22:02:36 38° N 22:02:36 38° N
BREEZE-M DEB (TANK) 3.6 21:59:17 10° W 22:07:42 48° SW 22:07:42 48° SW
Cosmos 2279 Rocket 3.8 22:07:31 62° S 22:08:39 89° E 22:14:54 10° N
Cosmos 1655 Rocket 4.3 22:03:05 10° NNW 22:09:15 64° W 22:11:27 40° SSW
MetOp-B 4.2 22:11:31 69° NNE 22:11:31 69° NNE 22:16:18 10° NNW
Meteor 2-1 Rocket 4.2 22:13:43 87° WSW 22:13:46 88° W 22:19:42 10° NNE
Aureole 3 4.2 22:08:43 10° N 22:15:24 86° W 22:15:25 86° WSW
Cosmos 2266 Rocket 4.1 22:16:06 10° N 22:21:52 66° NE 22:21:52 66° NE
USA 215 3.5 22:20:58 32° NE 22:24:09 67° NNW 22:30:38 10° WSW
SPOT 1/Viking Rocket 4.3 22:25:50 45° N 22:25:50 45° N 22:29:26 10° N
H-2A R/B 3.4 22:26:03 39° NNW 22:26:03 39° NNW 22:29:01 10° NNW
SeaSat 1 3.3 22:27:26 10° NNE 22:32:12 48° NW 22:36:56 10° SW
ERS-1 Rocket 4.4 22:35:09 31° WSW 22:35:43 32° W 22:40:13 10° NNW
UNK 4.4 22:26:19 10° WNW 22:41:04 65° SW 22:41:04 65° SW
Lacrosse 4 Rocket 4.4 22:42:55 10° NNE 22:43:06 10° NNE 22:43:06 10° NNE
ATLAS 5 CENTAUR R/B 3.8 22:39:41 10° W 22:44:06 29° NNW 22:47:50 15° NNE
BREEZE-M DEB (TANK) 4.3 22:27:29 10° W 22:45:23 89° N 22:45:27 88° NE
CZ-4C R/B 4.4 22:41:56 10° WNW 22:46:44 23° N 22:51:50 11° NE
ARGOS 4.3 23:05:59 40° NW 23:05:59 40° NW 23:09:35 10° NNW
Terra 4.0 23:10:20 21° N 23:10:20 21° N 23:11:54 10° N
Cosmos 1980 Rocket 4.3 23:21:30 10° N 23:24:14 20° NNE 23:24:14 20° NNE
H-2A R/B 4.2 23:43:42 22° NNW 23:43:42 22° NNW 23:45:35 10° NNW
CENTAUR R/B 3.8 23:40:45 10° W 23:46:50 40° NNW 23:53:41 10° NE
